sat.trackr.live / text

‹ back to catalog

STARLINK-4549

NORAD 53433 · 2022-097AX

PAYLOAD ACTIVE UNKNOWN

§ Identity

Operator
Country
US
Launch date
2022-08-10
Launch site
AFETR
Launch vehicle
Mass (kg)
RCS (m²)

Purposes: comms

External: N2YO · Heavens-Above · Gunter

§ Orbital elements

Epoch: 2026-05-25T04:41:52.380096Z

Period
95.44 min
Inclination
53.2137°
Eccentricity
0.0001155
Mean motion
15.08842175 rev/d
Perigee alt
538.9 km
Apogee alt
540.5 km
Semi-major
6,917.9 km
B*
6.2580e-5
RAAN
120.6678°
Arg perigee
76.3609°
Mean anomaly
283.7512°
Rev number
21,031

§ Raw data

STARLINK-45491 53433U 22097AX  26145.19574514  .00000708  00000+0  62580-4 0  99912 53433  53.2137 120.6678 0001155  76.3609 283.7512 15.08842175210310

JSON: /api/v1/satellites/53433 · /tle

For live sub-satellite position, see the globe view (requires WebGL).

§ Visibility from observer

Set your observer location to see the next 7 days of passes ≥ 10°. The values pass through the URL so the page stays shareable.

No JS? Fill the form by hand. The geolocation button needs JavaScript.